Flag for United Kingdom Weather past 2 weeks in Leicester, England, United Kingdom

Now
37 °F

Passing clouds.


Feels Like: 29 °F
Forecast: N/A
Wind: 13 mph from Southwest

Location: East Midlands

Current Time: Mar 2, 2015 at 8:50:45 PM

Latest Report: Mar 2, 2015 at 8:20 PM


Visibility: N/A

Pressure: 29.83 "Hg

Humidity: 65%

Dew point: 27 °F

Location of LeicesterLocation

Historic Weather in Leicester — Graph

°F

Leicester temperature yesterday

Maximum temperature yesterday: 50 °F (at 12:20 AM)
Minimum temperature yesterday: 36 °F (at 11:20 PM)
Average temperature yesterday: 43 °F

Past Weeks' High & Low Weather Summary

 TemperatureHumidityPressure
High52 °F (Feb 18, 1:50 PM)100% (Feb 16, 9:20 AM)30.69 "Hg (Feb 16, 9:20 AM)
Low32 °F (Feb 17, 5:50 AM)49% (Mar 2, 3:50 PM)29.09 "Hg (Feb 23, 6:20 PM)
Average41 °F81%29.79 "Hg
* Reported Feb 15 6:20 PM — Mar 2 6:50 PM, Leicester, Weather by CustomWeather, © 2015

Note: Actual official high and low records may vary slightly from our data, if they occured in-between our weather recording intervals... More about our weather records

Advertising

Leicester weather history for previous 24 hours

 ConditionsComfort  
Time TempWeatherWind HumidityBarometerVisibility
6:50 PM
Mon, Mar 2
39 °FPassing clouds.17 mph61%29.83 "HgN/A
6:20 PM39 °FPassing clouds.18 mph61%29.80 "HgN/A
5:50 PM39 °FPassing clouds.17 mph61%29.80 "HgN/A
5:20 PM41 °FPassing clouds.20 mph53%29.80 "HgN/A
4:50 PM43 °FPassing clouds.22 mph53%29.77 "HgN/A
4:20 PM43 °FPassing clouds.24 mph49%29.77 "HgN/A
3:50 PM43 °FPassing clouds.29 mph49%29.77 "HgN/A
3:20 PM45 °FScattered clouds.28 mph53%29.77 "HgN/A
2:50 PM45 °FScattered clouds.29 mph53%29.74 "HgN/A
2:20 PM45 °FScattered clouds.29 mph53%29.71 "HgN/A
1:50 PM43 °FScattered clouds.29 mph61%29.71 "HgN/A
1:20 PM37 °FScattered clouds.22 mph81%29.71 "HgN/A
12:50 PM43 °FPartly sunny.32 mph57%29.68 "HgN/A
12:20 PM43 °FPartly sunny.25 mph61%29.65 "HgN/A
11:50 AM43 °FPartly sunny.31 mph61%29.65 "HgN/A
11:20 AM41 °FScattered clouds.29 mph61%29.62 "HgN/A
10:50 AM41 °FPartly sunny.25 mph61%29.62 "HgN/A
10:20 AM41 °FScattered clouds.26 mph66%29.59 "HgN/A
9:50 AM41 °FScattered showers. Partly sunny.30 mph61%29.59 "HgN/A
9:20 AM39 °FScattered showers. Scattered clouds.23 mph70%29.56 "HgN/A
8:50 AM39 °FPassing clouds.22 mph75%29.56 "HgN/A
8:20 AM37 °FPassing clouds.21 mph81%29.53 "HgN/A
7:50 AM36 °FScattered clouds.21 mph87%29.53 "HgN/A
7:20 AM36 °FSprinkles. Broken clouds.23 mph93%29.53 "HgN/A
6:50 AM36 °FRain showers. Passing clouds.16 mph87%29.50 "HgN/A
6:20 AM36 °FClear.15 mph87%29.50 "Hg10 mi
5:50 AM36 °FClear.15 mph87%29.50 "Hg10 mi
5:20 AM36 °FClear.16 mph87%29.50 "Hg10 mi
4:50 AM36 °FClear.14 mph87%29.50 "Hg10 mi
4:20 AM36 °FClear.13 mph87%29.50 "Hg10 mi
3:50 AM36 °FClear.18 mph87%29.50 "Hg10 mi
3:20 AM36 °FClear.20 mph87%29.50 "Hg10 mi
2:50 AM36 °FClear.18 mph87%29.47 "Hg10 mi
2:20 AM36 °FClear.20 mph87%29.47 "Hg10 mi
1:50 AM36 °FClear.16 mph87%29.47 "Hg10 mi
1:20 AM36 °FClear.16 mph87%29.47 "Hg10 mi
12:50 AM36 °FClear.15 mph87%29.47 "Hg10 mi
12:20 AM36 °FClear.15 mph87%29.47 "Hg10 mi
11:50 PM
Sun, Mar 1
36 °FClear.16 mph87%29.47 "Hg10 mi
11:20 PM36 °FClear.20 mph87%29.45 "Hg10 mi
10:50 PM37 °FClear.22 mph81%29.45 "Hg10 mi
10:20 PM37 °FClear.20 mph81%29.45 "Hg10 mi
9:50 PM37 °FPassing clouds.18 mph81%29.45 "HgN/A
9:20 PM37 °FPassing clouds.21 mph81%29.42 "HgN/A
8:50 PM37 °FPassing clouds.21 mph81%29.42 "HgN/A
8:20 PM37 °FPassing clouds.20 mph81%29.42 "HgN/A
Weather by CustomWeather, © 2015

See weather overviewHow to use our weather pages